DELTA 1 DEB, 10206

Orbit data source: Space-Track

DELTA 1 DEB, 10206 is space debris in LEO originally from a launch on Thu, 14 Jul 1977 UTC launched from the Air Force Eastern Test Range (AFETR). Debris objects in space refer to the collection of defunct objects orbiting the Earth. Examples of debris include non-operational satellites, rocket bodies, and fragments generated from explosions, collisions, or faulty payload assembly.

Loading next visibility...
Identifier
10206, 1977-065AK
Orbit
LEO
Country
Flag of USUS
Related business
Manufacturer
Unknown
Mission
Spacecraft
Bus & Motor
Unknown
Mass
Unknown
Launch date (UTC)
1977-07-14 (49 years ago)
Launch vehicle
Unknown
Launch site
Air Force Eastern Test Range (AFETR)
Object type
Payload
Rocket body
Debris
Shape & HBR
Unknown shape, 0.1 m
Radar Cross Section
Medium (>0.1 m² and <1 m²)

Expand to show TLE details & history
Last TLE update: 11 hours ago

TLE from 11 hours ago
0 DELTA 1 DEB
1 10206U 77065AK  26262.94461502  .00000454  00000-0  28722-3 0  9990
2 10206  29.2064 144.9447 0524860 222.1573 133.7458 13.42382567327390
Epoch: 2026-09-19T22:40Z
TLE epoch observation values (Epoch: 2026-09-19T22:40:14.737Z)
Latitude
0.00001°
Longitude
166.03744°
Altitude
1,380.39 km
Speed
7.035 km/s
True Right ascension
09h 39m 46s
True Declination
0° 00' 00"
Sunlit
Object was in daylight at epoch
Visualization orbit readout
Latitude
Unknown
Longitude
Unknown
Altitude
Unknown
Speed
Unknown
Apparent Right ascension
Unknown
Apparent Declination
Unknown
Sunlit
N/A
Visualization observer readout
Local Sidereal Time
02:40:30
Azimuth
Unknown
Elevation
Unknown
Doppler factor
Unknown
Orbital elements
Apogee altitude
1,496.944 km
Perigee altitude
711.505 km
Semi-major axis
7,482.362 km
Eccentricity
0.05249
Inclination
29.2064°
RAAN
144.9447°
Arg. of periapsis
222.1573°
True anomaly
137.89825°
Mean anomaly
133.7458°
Eccentric anomaly
135.8408°
Mean motion
3.3534 °/min
Orbital period
107.35 mins
BSTAR
0.00028722
Loading maneuver chart data...
Computing Atmospheric mass density...
Loading historical data...
Loading historical data...
Loading historical data...
Loading historical data...
Loading historical data...
Loading historical data...
Loading historical data...

Documentation

Showing up to 5 results
|